Probability
0 0 0 1 0 0 0 0 0 0 0 0 0 0 0 0 0 0 0 0 0 0 0 0 0 0 0 0 0 0 0 0 0 0 1 2 3 3
0 0 0 1 1 0 0 0 0 0 0 0 0 0 0 0 0 0 0 0 0 0 0 0 0 0 0 0 0 0 0 0 0 0 1 2 3 2
0 0 0 1 2 1 0 0 0 0 0 0 0 0 0 0 0 0 0 0 0 0 0 0 0 0 0 0 0 0 0 0 0 0 1 2 2 1
0 0 0 1 2 2 1 0 0 0 0 0 0 0 0 0 0 0 0 0 0 0 0 0 0 0 0 0 0 0 0 0 0 0 0 1 1 0
0 0 0 0 1 2 2 1 0 0 0 0 0 0 0 0 0 0 0 0 0 0 0 0 0 0 0 0 0 0 0 0 0 0 0 0 0 0
0 0 0 0 1 2 3 2 1 1 0 0 0 0 0 0 0 0 0 0 0 0 0 0 0 0 0 0 0 0 0 0 0 0 0 0 0 0
0 0 0 0 0 1 2 2 2 2 1 0 0 0 0 0 0 0 0 0 0 0 0 0 0 0 0 0 0 0 0 0 0 0 0 0 0 0
0 0 0 0 0 0 1 1 1 2 2 1 0 0 0 0 0 0 0 0 0 0 0 0 0 0 0 0 0 0 0 0 0 0 0 0 0 0
0 0 0 0 0 0 0 0 1 1 1 1 0 0 0 0 0 0 0 0 0 0 0 0 0 0 0 0 0 0 0 0 0 0 0 0 0 0
0 0 0 0 0 0 0 1 1 1 0 0 0 0 0 0 0 0 0 0 0 0 0 0 0 0 0 0 0 0 0 0 0 0 0 0 0 0
0 0 0 0 0 0 0 1 2 2 1 0 0 0 0 0 0 0 0 0 0 0 0 0 0 0 0 0 0 0 0 0 0 0 0 0 0 0
0 0 0 0 0 0 0 0 1 2 2 1 0 0 0 0 0 0 0 0 0 0 0 0 0 0 0 0 0 0 0 0 0 0 0 0 0 0
0 0 0 0 0 0 0 0 0 1 2 1 0 0 0 0 0 0 0 0 0 0 0 0 0 0 0 0 0 0 0 0 0 0 0 0 0 0
0 0 0 0 0 0 0 0 0 1 1 1 0 0 0 0 0 0 0 0 0 0 0 0 0 0 0 0 0 0 0 0 0 0 0 0 0 0
0 0 0 0 0 0 0 0 0 0 0 0 0 0 0 0 0 0 0 0 0 0 0 0 0 0 0 0 0 0 0 0 0 0 0 0 0 0
0 0 0 0 0 0 0 0 0 0 0 0 0 0 0 0 0 0 0 0 0 0 0 0 0 0 0 0 0 0 0 0 0 0 0 0 0 0
0 0 0 0 0 0 0 0 0 0 0 0 0 0 0 0 0 0 0 0 0 0 0 0 0 0 0 0 0 0 0 0 0 0 0 0 0 0
0 0 0 0 0 0 0 0 0 0 0 0 0 0 0 0 0 0 0 0 0 0 0 0 0 0 0 0 0 0 0 0 0 0 0 0 0 0
0 0 0 0 0 0 0 0 0 0 0 0 0 0 0 0 0 0 0 0 0 0 0 0 0 0 0 0 0 0 0 0 0 0 0 0 0 0
0 0 0 0 0 0 0 0 0 0 0 0 0 0 0 0 0 0 0 0 0 0 0 0 0 0 0 0 0 0 0 0 0 0 0 0 0 0
0 0 0 0 0 0 0 0 0 0 0 0 0 0 0 0 0 0 0 0 0 0 0 0 0 0 0 0 0 0 0 0 0 0 0 0 0 0
0 0 0 0 0 0 0 0 0 0 0 0 0 0 0 0 0 0 0 0 0 0 0 0 0 0 0 0 0 0 0 0 0 0 0 0 0 0
0 0 0 0 0 0 0 0 0 0 0 0 0 0 0 0 0 0 0 0 0 0 0 0 0 0 0 0 0 0 0 0 0 0 0 0 0 0
Wind_Speed
3 3 2 2 2 2 2 2 2 3 4 3 2 2 2 2 4 2 2 6 8 8 9 9 10 10 10 11 11 10 10 11 11 12 12 12 11 11
2 3 3 2 2 2 2 2 2 3 4 3 2 2 3 3 4 2 3 7 8 9 9 10 10 10 11 11 11 10 10 11 11 12 12 11 11 10
3 3 4 3 3 2 2 2 3 3 5 4 2 2 2 3 3 2 3 3 4 9 10 10 10 11 10 11 11 10 10 10 10 11 12 11 10 10
4 4 4 3 4 3 3 3 3 3 4 5 3 2 3 3 2 3 3 4 3 8 10 10 10 10 10 11 10 9 9 9 10 11 12 11 10 9
4 5 5 4 5 3 3 3 3 3 3 3 4 2 2 2 2 3 4 3 4 6 8 9 10 11 11 11 10 8 9 9 9 10 11 9 9 9
4 5 5 5 5 5 4 4 3 3 3 3 3 3 2 2 2 2 4 3 4 5 5 6 9 10 10 10 9 8 8 9 9 10 9 8 8 9
5 5 5 6 7 6 4 4 4 3 3 3 3 3 2 2 2 2 4 4 4 3 3 4 4 4 5 7 7 8 8 8 8 8 8 7 7 7
5 5 5 6 6 8 8 7 6 5 4 4 4 4 4 3 3 3 3 3 4 2 3 5 3 4 4 3 6 7 7 7 7 7 7 7 6 6
5 4 4 4 6 5 6 7 7 8 7 5 5 5 4 4 3 3 3 4 4 3 3 5 3 4 4 4 7 6 6 6 6 6 7 7 7 7
5 4 4 4 4 4 4 5 5 5 6 5 5 5 4 4 4 5 5 4 4 3 2 3 3 3 4 3 5 5 5 6 6 6 6 7 7 7
4 4 4 4 6 6 5 5 5 5 5 6 6 6 7 7 5 2 2 3 4 3 1 2 2 3 3 3 3 4 5 5 6 6 7 7 7 7
4 4 6 6 7 7 5 5 5 5 3 4 4 5 4 4 5 3 3 3 3 3 1 1 1 2 3 2 2 2 2 4 6 7 7 7 7 4
3 3 4 7 7 7 6 4 6 5 3 3 3 3 3 3 3 3 3 3 4 4 2 1 2 1 2 3 3 2 2 2 3 4 6 7 7 5
3 3 4 6 7 7 6 6 6 5 2 2 3 3 3 3 3 3 4 4 4 5 4 3 2 2 2 3 3 3 2 2 2 2 2 5 5 6
3 5 6 6 5 5 6 6 4 3 2 3 3 3 2 2 2 2 2 2 3 3 3 3 3 3 3 4 4 3 3 2 2 2 2 2 2 2
3 5 5 5 3 4 3 3 2 2 2 3 3 2 1 1 2 2 2 2 2 2 2 3 3 4 3 4 4 4 3 2 2 2 3 3 3 2
2 1 1 1 2 1 1 2 2 2 2 2 2 2 1 2 2 2 2 2 2 3 3 2 2 2 3 4 3 4 3 3 3 3 3 3 3 2
2 2 2 2 2 2 2 2 2 2 2 2 2 2 2 2 2 2 1 1 2 3 2 2 2 2 2 2 3 4 3 3 3 3 2 3 4 3
2 2 2 2 2 2 2 2 2 1 1 1 2 2 1 1 1 2 2 2 2 2 2 2 2 2 2 4 3 2 2 3 3 3 3 3 4 4
1 2 2 2 2 2 2 1 1 1 1 1 1 1 1 1 2 2 2 2 2 3 3 2 2 2 3 4 3 3 4 3 3 4 4 3 3 4
1 1 1 1 1 1 1 1 1 1 1 1 1 1 2 1 2 2 2 3 3 2 3 3 3 4 3 2 2 3 3 4 4 4 3 2 2 2
1 1 1 1 1 1 1 1 1 1 1 1 1 1 1 1 2 2 2 2 3 3 3 3 2 2 1 2 3 4 4 4 4 4 4 3 2 2
1 1 1 1 1 1 1 1 2 1 1 1 1 1 1 1 2 2 2 2 2 2 2 2 2 2 2 2 2 3 4 4 3 3 3 3 3 3
Wind_Direction
228 228 230 236 229 227 234 231 233 270 273 253 266 264 267 258 266 261 260 276 289 290 291 292 293 295 296 297 296 293 295 297 296 297 295 292 293 294
226 231 236 234 229 221 225 242 237 246 265 258 262 270 273 282 283 279 267 287 286 287 288 291 292 292 291 295 293 290 291 292 292 294 294 292 294 292
234 232 237 236 231 223 224 234 241 242 260 278 279 281 265 274 285 273 275 273 274 282 287 290 291 290 290 293 291 289 288 290 292 292 294 294 294 292
229 228 236 240 238 230 226 231 238 243 251 270 279 280 269 263 270 280 286 284 277 279 285 289 289 289 290 294 289 289 290 290 290 291 293 293 291 289
227 224 228 229 235 233 233 231 237 250 252 258 274 282 288 287 294 290 286 282 282 282 286 288 289 290 289 292 285 286 287 288 288 292 293 291 293 291
231 226 223 224 226 227 231 228 230 241 250 256 267 277 283 289 287 297 300 290 290 293 288 294 295 293 288 288 286 286 285 287 287 290 290 293 293 292
236 232 228 225 228 229 232 225 221 228 241 248 258 273 273 287 281 285 289 301 294 285 296 295 295 291 289 282 282 287 289 290 291 293 294 295 294 290
239 240 235 226 233 241 244 242 234 230 234 234 246 252 262 269 277 279 290 301 296 294 305 296 293 289 287 275 284 287 286 291 297 301 299 299 298 294
236 240 244 236 231 233 239 246 249 249 246 236 237 245 252 255 261 270 274 279 281 287 296 291 292 285 285 288 292 290 295 301 305 310 310 306 305 305
236 236 238 240 229 223 227 235 240 244 248 241 234 241 250 248 237 249 262 279 284 277 270 279 287 289 295 290 295 296 303 309 310 311 313 313 311 309
241 240 238 240 237 227 224 232 244 252 259 262 269 270 274 275 272 263 271 281 288 284 255 263 283 303 294 280 297 314 318 315 313 313 313 313 311 306
246 245 245 245 246 233 223 223 237 244 245 257 264 271 265 265 267 243 235 250 272 275 243 262 278 326 313 295 292 302 302 308 315 315 310 310 311 309
241 245 246 251 251 248 239 229 238 245 235 238 246 255 257 253 248 248 241 240 250 258 243 228 252 269 257 294 300 287 279 297 303 306 307 311 312 311
243 246 250 255 252 248 246 244 248 251 234 233 241 250 257 260 259 261 260 254 248 251 244 237 245 244 253 277 285 301 309 304 300 298 304 309 305 303
247 253 254 252 255 249 247 247 240 230 226 235 244 251 255 257 269 278 279 274 279 270 253 245 247 250 249 259 273 285 305 308 293 301 305 306 301 295
256 256 255 259 259 252 247 245 233 226 226 231 243 254 260 260 270 274 282 294 297 298 285 256 246 244 259 265 263 274 280 280 296 301 300 299 303 293
245 247 248 250 243 242 235 230 230 228 232 225 230 245 259 270 278 280 271 286 283 294 316 322 297 273 256 252 260 266 274 282 281 296 302 301 300 295
225 223 234 232 230 232 234 233 229 226 220 225 228 234 247 260 276 285 280 280 282 286 292 299 314 330 325 301 259 259 267 281 293 296 294 290 297 303
229 232 234 231 224 222 224 224 231 227 211 217 231 236 245 256 271 280 281 283 283 283 285 286 282 285 291 296 298 271 271 288 295 292 282 276 284 293
231 237 236 229 216 215 219 218 217 209 202 217 237 246 243 247 262 268 270 275 286 290 292 288 275 273 264 273 283 295 286 273 277 280 285 281 279 285
241 242 237 226 215 213 217 209 204 209 211 223 238 253 253 245 256 267 271 280 279 277 282 286 286 295 292 300 298 299 300 287 280 271 274 270 286 289
256 256 246 227 217 214 210 207 201 199 203 221 236 251 259 255 251 258 262 270 272 274 282 288 300 304 290 282 287 296 309 318 309 297 284 262 237 239
254 254 247 229 221 221 214 212 201 206 207 214 229 244 251 261 260 260 266 274 280 284 291 297 307 302 286 276 287 296 304 313 323 335 327 315 287 267